GEFSCGP_con_probscp_150.txt.gz
Probability
0 0 0 0 0 0 0 0 0 0 0 0 0 1 2 4 5 6 7 8 9 13 18 19 17 17 14 11 10 8 5 4 5 5 3 1 2 3 2 1 0 0 1 0
0 0 0 0 0 0 0 0 0 0 0 0 0 0 1 1 2 3 5 8 11 16 22 22 20 18 16 12 10 9 6 5 6 5 3 1 2 3 2 1 0 1 1 1
0 0 0 0 0 0 0 0 0 0 0 0 0 0 0 0 1 2 4 8 14 21 24 24 21 18 14 11 9 8 7 7 6 5 3 1 1 2 1 0 0 1 1 1
0 0 0 0 0 0 0 0 0 0 0 0 0 0 0 0 1 2 5 11 18 22 23 21 19 13 9 8 7 6 7 7 6 5 4 2 1 1 0 0 0 0 0 0
0 0 0 0 0 0 0 0 0 0 0 0 0 0 0 0 0 1 4 11 17 21 20 18 14 10 7 6 5 4 5 5 5 4 4 3 3 2 1 0 0 0 0 0
0 0 0 0 0 0 0 0 0 0 0 0 0 0 0 0 0 0 2 7 14 18 17 15 11 8 8 7 5 4 4 4 4 3 3 4 5 5 3 1 0 0 0 0
0 0 0 0 0 0 0 0 0 0 0 0 0 0 0 0 0 1 3 6 12 16 16 12 9 7 7 8 7 6 6 6 5 4 3 4 6 6 4 1 0 0 0 0
0 0 0 0 0 0 0 0 0 0 0 0 0 0 0 0 1 2 4 7 11 14 14 10 5 4 5 6 8 8 7 6 6 5 4 5 6 6 4 1 0 0 0 0
0 0 0 0 0 0 0 0 0 0 0 0 0 0 0 0 2 3 5 7 9 12 12 8 3 1 2 3 6 7 5 4 4 5 5 5 5 5 3 1 0 0 0 0
0 0 0 0 0 0 0 0 0 0 0 0 0 0 0 0 2 3 4 5 6 9 10 6 2 1 1 2 3 4 2 1 2 3 4 4 4 4 3 1 0 0 0 0
0 0 0 0 0 0 0 0 0 0 0 0 0 0 0 0 2 2 2 2 4 6 6 3 1 0 0 1 2 2 1 0 1 1 2 2 2 2 2 1 0 0 0 0
0 0 0 0 0 0 0 0 0 0 0 0 0 0 0 0 1 1 1 1 2 2 2 1 1 1 2 2 3 2 1 0 0 0 1 1 0 1 1 0 0 0 0 0
0 0 0 0 0 0 0 0 0 0 0 0 0 0 0 0 0 0 1 1 2 1 1 2 2 3 3 3 3 2 1 0 0 0 0 0 0 0 0 0 0 0 0 0
0 0 0 0 0 0 0 0 0 0 0 0 0 0 0 0 0 0 1 2 3 2 2 3 3 3 3 3 2 1 0 0 0 0 0 0 0 0 0 0 0 0 0 0
0 0 0 1 1 1 0 0 0 0 0 0 0 0 0 0 0 0 1 3 3 3 3 3 3 3 2 1 1 0 0 0 0 0 0 0 0 0 0 0 0 0 0 0
0 0 0 1 2 1 0 0 0 0 0 0 0 0 0 1 2 1 1 3 4 5 6 6 5 3 2 2 1 1 1 1 1 1 1 0 1 1 0 0 0 0 0 0
0 0 0 1 1 1 0 0 0 0 0 0 0 0 1 4 5 3 2 3 6 8 11 11 7 3 2 3 3 3 3 2 2 2 2 1 1 1 0 0 0 1 0 0
0 0 0 0 0 0 0 0 0 0 0 1 1 1 2 5 7 5 3 4 7 10 14 14 9 4 3 5 5 4 4 3 3 3 3 2 1 1 0 0 0 0 0 0
0 0 0 0 0 0 0 0 0 0 0 1 2 2 3 6 8 7 6 6 7 10 12 11 7 5 6 7 7 5 4 4 4 3 3 3 1 1 1 1 0 0 0 0
0 0 0 0 0 0 0 0 0 0 0 1 1 2 5 8 8 8 8 7 7 7 7 8 7 7 9 9 7 5 4 4 3 3 3 3 3 2 2 2 1 0 0 0
0 0 0 0 0 0 0 0 0 0 0 0 0 2 6 7 7 6 7 6 5 4 4 5 6 7 8 9 7 5 4 3 3 3 3 3 3 3 3 3 2 1 1 1
0 0 0 0 0 0 0 0 0 0 2 2 1 2 4 6 6 6 7 6 4 4 4 4 6 8 7 7 7 5 3 3 3 4 4 3 2 2 3 3 3 3 2 2
0 0 0 0 0 0 0 0 0 1 4 5 4 4 5 6 7 8 8 8 6 6 5 6 8 8 6 5 5 5 4 3 4 4 4 3 2 2 3 3 3 3 3 3
0 0 0 0 1 1 1 0 0 2 5 6 6 6 7 9 8 8 9 9 8 7 8 9 10 9 7 5 4 4 3 3 3 4 4 3 3 3 3 3 3 3 3 3
0 0 0 0 1 2 2 1 0 2 5 7 8 8 9 10 9 9 9 9 9 8 9 10 10 8 6 4 3 3 3 3 3 3 3 4 4 4 3 3 3 2 2 2
0 0 0 0 1 2 2 1 0 2 5 8 9 8 9 9 9 9 9 8 8 8 8 8 8 6 4 4 3 3 3 3 3 3 3 4 5 4 3 3 2 1 1 1

GEFSCGP_con_probscp_156.txt.gz
Probability
0 0 0 0 0 0 0 0 0 0 0 0 0 0 2 6 7 8 10 12 14 20 27 32 34 32 29 27 24 19 17 19 20 19 16 12 8 5 3 2 1 0 0 0
0 0 0 0 0 0 0 0 0 0 0 0 0 0 2 6 7 8 8 9 13 20 28 34 37 35 31 29 25 20 18 20 22 21 17 12 8 6 4 3 1 0 0 0
0 0 0 0 0 0 0 0 0 0 0 0 0 1 2 5 6 6 5 6 11 21 30 35 36 34 30 27 22 17 16 18 21 21 18 13 11 9 6 4 3 1 0 0
0 0 0 0 0 0 0 0 0 0 0 0 0 1 2 2 3 3 3 6 13 22 29 32 31 29 25 21 16 13 13 15 16 17 16 14 13 11 10 8 5 2 1 0
0 0 0 0 0 0 0 0 0 0 0 0 0 0 0 0 1 2 4 8 14 22 26 27 26 23 20 15 11 9 10 12 13 13 13 12 12 12 11 10 6 3 1 0
0 0 0 0 0 0 0 0 0 0 0 0 0 0 0 0 0 1 4 9 14 19 23 24 23 20 16 11 8 8 10 11 12 11 10 10 10 10 10 9 8 5 2 1
0 0 0 0 0 0 0 0 0 0 0 0 0 0 0 0 0 1 3 8 13 17 19 22 22 19 15 10 7 8 10 11 10 10 9 8 9 9 9 9 9 7 4 2
0 0 0 0 0 0 0 0 0 0 0 0 0 0 0 0 0 1 4 9 14 15 17 20 21 18 15 11 8 8 9 10 9 8 6 6 7 7 7 8 9 7 4 3
0 0 0 0 0 0 0 0 0 0 0 0 0 0 0 0 1 3 6 10 12 13 14 16 16 14 12 10 7 6 6 8 8 6 4 4 5 6 6 6 6 5 4 3
0 0 0 0 0 0 0 0 0 0 0 0 0 0 1 1 3 6 8 9 9 9 10 10 9 9 8 9 7 6 5 7 7 6 4 4 5 5 4 4 4 4 3 3
0 0 0 0 0 0 0 0 0 0 0 0 0 1 2 3 6 9 9 8 7 7 6 5 5 6 6 8 9 8 7 6 6 7 5 4 5 5 4 3 3 3 3 3
0 0 0 0 0 0 0 0 0 0 0 0 0 1 2 4 7 10 10 9 9 8 6 4 5 7 7 9 10 9 6 5 6 7 6 5 6 6 4 3 3 3 3 4
0 0 0 0 0 0 0 0 0 0 0 0 0 0 2 4 6 8 10 11 12 13 11 10 12 13 13 12 11 9 6 4 5 7 8 8 8 8 6 4 4 4 4 4
0 0 0 0 0 0 0 0 0 0 0 0 0 0 2 4 6 7 9 11 16 19 20 21 23 22 20 17 14 10 8 6 6 7 10 11 11 9 7 5 5 4 3 2
0 0 0 0 0 0 0 0 0 0 0 0 0 1 3 6 6 8 10 15 21 24 26 28 30 28 24 21 17 14 12 11 10 10 11 12 11 9 8 6 5 3 2 1
0 0 0 0 0 0 0 0 0 0 0 0 0 2 5 8 8 9 13 20 24 26 27 30 32 31 26 22 19 18 16 14 14 14 14 13 11 11 10 7 5 3 2 2
0 0 0 0 0 0 0 0 0 0 0 0 1 4 8 10 10 12 16 20 23 25 29 32 33 33 30 25 22 22 21 18 17 18 18 17 16 14 12 9 6 5 4 3
0 0 0 0 0 0 0 0 0 0 1 2 5 8 12 14 14 15 17 19 21 24 29 33 35 36 35 31 27 26 24 21 21 21 21 20 19 17 13 9 8 6 3 1
1 0 0 0 0 0 0 0 0 0 1 3 6 11 15 17 17 17 20 21 22 24 30 34 36 38 39 35 30 29 27 24 24 24 22 19 18 16 12 10 9 7 3 1
1 0 0 0 0 0 0 0 0 0 1 5 9 13 15 17 19 23 25 26 25 28 33 36 38 40 39 36 32 30 28 25 24 23 21 17 15 13 12 11 10 7 5 2
1 1 0 0 0 1 1 1 1 3 4 10 16 19 20 23 29 33 33 31 30 32 35 37 38 38 37 36 34 30 26 23 22 20 18 15 12 11 12 12 10 8 6 4
3 3 2 1 1 3 4 5 6 9 11 16 20 24 28 34 37 36 35 34 33 33 34 35 34 34 33 33 31 27 22 19 19 18 17 14 11 10 11 11 10 9 7 6
7 8 7 7 7 9 10 11 13 16 20 21 22 24 29 33 32 29 29 31 32 31 31 30 29 28 29 28 26 23 19 16 17 18 16 13 11 10 10 11 11 10 8 7
11 13 14 14 14 15 15 15 16 19 23 25 23 22 24 24 23 21 24 28 29 29 28 28 26 24 24 23 21 18 15 14 15 15 14 11 10 10 10 11 11 10 8 7
11 14 16 16 18 21 20 17 16 18 20 22 21 18 18 20 19 19 22 26 27 26 26 27 25 22 21 19 17 15 13 12 12 12 10 9 9 9 10 10 10 8 6 5
8 12 14 15 19 23 23 19 16 16 16 19 19 16 15 18 20 19 21 25 26 24 25 26 25 22 20 17 15 13 12 11 10 9 8 8 8 9 9 9 7 6 4 3

GEFSCGP_con_probscp_162.txt.gz
Probability
0 0 0 0 0 0 0 0 0 0 0 0 0 1 2 4 6 16 35 55 63 65 67 66 62 58 58 60 57 49 42 34 28 25 26 25 18 14 12 12 11 6 2 1
0 0 0 0 0 0 0 0 0 0 0 0 0 2 5 7 10 16 33 52 63 66 68 68 63 59 60 62 58 50 43 35 28 26 28 26 22 17 14 14 13 9 5 2
0 0 0 0 0 0 0 0 0 0 0 0 0 3 8 13 14 17 27 46 62 67 68 67 63 60 61 62 57 49 42 34 27 25 26 26 23 19 16 15 16 14 9 6
0 0 0 0 0 0 0 0 0 0 0 0 0 3 9 14 15 16 23 40 58 67 65 63 61 60 59 57 51 44 39 33 26 23 24 24 21 18 17 17 18 17 13 10
0 0 0 0 0 0 0 0 0 0 0 0 0 1 6 10 13 17 24 37 54 62 60 57 57 57 55 50 44 38 35 33 28 24 23 22 21 18 17 18 19 20 17 13
0 0 0 0 0 0 0 0 0 0 0 0 0 1 3 6 9 17 26 37 48 53 52 51 51 52 48 43 39 35 34 32 27 22 21 20 19 18 16 16 20 22 19 15
0 0 0 0 0 0 0 0 0 0 0 0 0 1 3 4 6 15 25 33 38 41 44 45 47 46 42 37 35 33 31 29 24 19 18 16 15 14 14 14 17 20 18 15
0 0 0 0 0 0 0 0 0 0 0 0 0 2 4 5 7 12 20 26 29 31 35 38 42 42 38 33 32 30 27 24 20 17 15 13 12 11 11 12 14 15 14 12
0 0 0 0 0 0 0 0 0 0 0 0 0 1 5 7 8 13 18 23 26 27 27 30 35 37 33 28 27 26 24 22 19 17 14 11 12 12 10 10 11 11 10 8
0 0 0 0 0 0 0 0 0 0 0 0 0 1 5 7 10 14 20 24 28 27 25 27 31 31 27 22 21 24 25 24 21 18 14 12 13 14 12 10 10 9 8 7
0 0 0 0 0 0 0 0 0 0 0 0 0 1 3 6 10 16 22 25 27 26 26 27 29 28 24 20 22 26 28 26 23 20 17 15 16 16 15 12 10 9 8 7
0 0 0 0 0 0 0 0 0 0 0 0 0 1 2 4 9 17 24 28 28 26 27 30 32 30 26 25 29 32 30 26 23 22 20 19 17 17 15 13 11 11 10 9
0 0 0 0 0 0 0 0 0 0 0 0 1 2 4 6 11 18 26 33 35 33 33 37 40 38 34 35 39 39 33 27 25 25 25 22 19 17 16 14 13 14 14 13
0 0 0 0 0 0 0 0 0 0 0 0 2 6 10 13 16 20 26 35 40 42 44 48 52 50 46 46 47 43 37 32 30 30 29 25 21 19 19 17 16 17 17 16
0 0 0 0 0 0 0 0 0 0 0 0 3 10 17 21 22 23 27 32 38 46 52 57 60 60 56 53 50 47 42 38 36 34 32 27 23 22 21 19 17 17 16 16
0 0 0 0 0 0 0 0 0 0 1 1 5 14 22 26 26 25 27 31 37 45 53 59 63 63 60 56 52 51 48 44 41 37 33 28 25 24 22 20 19 18 16 14
1 1 1 0 0 0 0 0 0 1 4 6 11 19 25 29 31 31 32 38 44 47 52 59 63 62 60 56 54 53 51 48 42 38 34 30 27 26 25 22 21 21 18 15
1 2 1 0 0 0 0 1 1 4 9 14 18 24 31 35 37 38 42 48 53 54 57 62 64 62 59 56 54 52 52 49 42 37 34 31 28 27 26 24 23 22 20 17
1 2 1 0 0 0 1 2 3 7 16 24 29 33 37 39 40 44 48 51 55 58 61 64 65 63 61 58 55 54 54 50 42 36 34 31 28 26 25 24 24 22 20 18
1 2 1 0 0 2 5 5 5 10 23 35 41 45 45 44 46 50 50 51 56 60 61 63 65 66 65 62 58 56 55 50 43 38 35 32 28 25 24 22 21 20 18 16
1 1 1 0 1 6 10 10 13 23 36 46 52 54 52 53 56 58 57 57 59 61 60 61 64 67 67 63 58 54 53 51 47 42 37 32 27 23 20 20 19 17 15 14
3 4 5 5 8 17 23 23 28 41 48 51 53 54 54 58 61 62 62 62 60 59 59 59 62 64 64 60 56 52 51 51 48 41 33 27 23 19 17 17 16 16 14 14
10 12 15 17 21 29 35 37 40 43 44 45 47 48 50 54 56 57 59 59 56 54 55 56 56 58 57 55 51 48 47 46 42 34 26 22 20 18 16 15 14 14 14 14
14 16 20 24 27 30 33 36 37 36 35 39 43 44 46 48 47 48 50 51 49 48 49 49 49 48 47 46 44 41 39 39 34 27 22 19 18 17 16 13 12 12 11 11
13 16 20 24 26 27 28 29 30 32 33 36 40 41 41 41 41 40 41 42 41 41 42 42 42 40 37 36 35 33 32 32 29 23 20 18 16 14 13 11 9 8 7 6
13 16 20 24 27 30 31 28 27 31 33 34 38 39 37 39 39 34 34 36 36 36 37 38 38 35 32 30 30 29 29 29 26 21 18 15 14 12 11 9 6 4 3 2

GEFSCGP_con_probscp_168.txt.gz
Probability
0 0 0 0 0 0 0 0 0 0 0 1 3 7 12 22 37 50 56 55 53 50 50 53 53 50 44 39 34 28 21 16 12 8 6 5 5 6 5 3 2 1 0 0
0 0 0 0 0 0 0 0 0 0 0 1 3 5 9 19 34 48 56 56 52 50 50 51 53 52 46 38 31 25 20 16 12 8 6 5 4 3 3 3 3 2 1 0
0 0 0 0 0 0 0 0 0 0 0 1 2 2 6 15 30 44 52 53 52 50 49 48 51 51 45 36 28 23 19 16 13 10 8 7 5 2 2 2 3 3 2 1
0 0 0 0 0 0 0 0 0 0 0 0 1 1 3 13 28 41 46 49 50 49 47 46 46 44 40 33 27 23 20 17 14 12 11 9 6 3 2 2 3 3 3 3
0 0 0 0 0 0 0 0 0 0 0 0 0 0 2 10 24 35 41 44 47 45 43 42 41 37 32 28 24 21 18 15 13 12 11 9 6 3 1 1 3 3 3 3
0 0 0 0 0 0 0 0 0 0 0 0 0 0 1 7 17 28 35 39 40 39 38 38 36 31 26 24 22 18 15 13 12 11 10 8 5 2 1 0 2 3 3 3
0 0 0 0 0 0 0 0 0 0 0 0 0 0 1 5 13 24 32 34 33 32 33 35 33 28 24 21 19 16 13 12 11 11 10 8 5 2 1 0 1 2 3 3
0 0 0 0 0 0 0 0 0 0 0 0 0 1 3 9 15 25 33 34 31 28 31 33 30 25 20 16 14 14 13 11 9 9 9 7 5 2 1 1 1 3 4 4
0 0 0 0 0 0 0 0 0 0 0 0 0 1 6 12 18 26 33 34 31 29 31 30 25 21 16 12 12 12 12 8 6 6 6 6 5 3 2 2 3 3 4 4
0 0 0 0 0 0 0 0 0 0 0 0 0 1 5 11 18 25 32 34 32 31 31 26 21 18 16 13 11 10 8 6 4 4 6 7 6 3 3 3 3 3 4 5
0 0 0 0 0 0 0 0 0 0 0 0 0 1 4 9 16 24 31 35 34 31 29 23 19 19 19 16 11 8 7 5 4 4 5 7 7 4 3 3 3 3 3 4
0 0 0 0 0 0 0 0 0 0 0 0 0 2 5 9 15 24 31 34 31 28 24 20 18 20 23 20 15 11 9 7 6 6 5 5 5 4 4 3 3 3 3 3
0 0 0 0 0 0 0 0 0 0 0 0 1 4 7 11 18 26 31 29 26 24 22 19 18 21 24 24 20 16 11 8 8 8 6 4 3 4 5 4 3 2 2 2
0 0 0 0 0 0 0 0 0 0 0 0 2 6 10 13 20 27 30 27 25 27 26 24 22 22 25 25 23 17 11 9 8 8 6 4 4 5 5 5 3 1 1 1
0 0 0 0 0 0 1 1 1 1 1 2 5 10 12 14 20 25 28 29 30 32 33 32 30 29 28 27 23 17 12 9 9 8 7 5 5 4 5 5 4 3 1 0
0 0 0 0 0 1 2 3 3 3 4 6 10 15 16 17 22 28 32 35 36 36 38 39 39 37 34 30 24 18 13 11 11 10 7 6 6 5 4 5 6 5 3 1
0 0 0 0 0 1 2 3 4 6 9 13 15 18 21 23 27 33 38 41 42 41 42 42 42 41 40 35 27 19 15 13 12 10 8 6 6 5 4 5 6 6 4 3
0 0 0 0 0 1 2 3 5 11 18 21 21 23 26 30 32 36 40 41 41 42 43 41 39 40 41 38 30 23 19 17 14 11 8 7 7 5 4 5 6 6 5 5
0 0 0 0 0 1 3 5 8 17 27 29 29 30 32 35 39 39 38 37 38 39 39 38 37 39 39 37 32 26 23 20 16 12 9 8 7 5 5 7 7 7 6 6
0 0 0 0 0 2 5 9 13 20 27 30 32 34 35 38 40 38 36 37 38 39 39 39 39 39 36 33 31 28 24 21 15 10 8 8 7 6 7 8 8 8 7 7
0 0 0 0 1 3 7 11 14 18 22 26 31 33 34 34 34 33 34 36 38 39 41 41 39 35 31 29 30 29 26 21 15 9 8 8 8 7 7 7 7 7 8 9
0 0 0 0 1 4 8 10 12 14 19 24 29 31 33 33 33 31 31 32 34 35 37 37 35 32 28 29 30 30 26 21 15 11 9 9 8 7 6 6 6 7 7 8
1 2 4 5 7 8 9 10 11 12 16 20 24 28 33 34 32 29 27 27 27 26 27 29 30 28 26 28 28 25 21 18 14 11 9 9 8 7 6 6 6 6 7 7
3 5 9 14 15 13 11 11 12 13 15 17 19 25 30 30 27 25 23 22 22 22 22 24 25 24 24 24 24 21 18 15 11 9 7 7 7 6 6 6 6 6 6 6
4 6 11 14 15 14 13 13 15 17 19 20 22 24 25 24 22 20 20 20 20 22 23 22 21 20 19 19 18 18 15 12 9 7 6 5 6 6 6 5 5 5 5 5
4 5 9 11 11 12 15 17 18 20 21 24 25 25 25 22 19 18 18 18 20 22 22 21 19 17 16 15 15 15 13 10 7 6 6 4 5 6 6 5 4 4 4 4

GEFSCGP_con_probscp_174.txt.gz
Probability
0 0 0 0 0 0 0 0 0 0 0 1 2 3 3 3 4 6 9 12 16 19 21 23 23 22 20 15 11 8 7 9 8 7 5 4 3 3 2 1 0 0 0 0
0 0 0 0 0 0 0 0 0 0 0 1 2 2 2 2 3 5 8 12 18 22 25 26 24 22 20 17 14 11 10 11 10 7 6 3 2 2 2 1 0 0 0 0
0 0 0 0 0 0 0 0 0 0 0 0 1 1 1 2 3 4 7 14 20 24 27 27 25 22 19 18 16 13 10 9 8 6 5 3 2 1 1 0 0 0 0 0
0 0 0 0 0 0 0 0 0 0 0 0 0 0 1 2 3 4 8 14 20 23 25 26 25 21 17 16 15 11 7 5 5 4 4 3 3 2 1 0 0 0 0 0
0 0 0 0 0 0 0 0 0 0 0 0 0 0 1 2 3 5 7 12 17 21 23 25 23 19 15 13 13 10 6 3 3 3 3 3 3 2 1 0 0 0 0 1
0 0 0 0 0 0 0 0 0 0 0 0 0 0 0 1 2 5 8 9 12 18 23 24 21 18 13 10 10 8 4 2 1 1 2 3 2 1 0 0 0 0 0 1
0 0 0 0 0 0 0 0 0 0 0 0 0 0 0 0 1 5 8 9 9 15 20 22 20 16 12 8 7 5 2 1 0 1 2 3 2 1 1 0 0 0 0 1
0 0 0 0 0 0 0 0 0 0 0 0 0 0 1 1 2 5 9 9 9 12 16 18 18 15 10 6 5 4 2 0 0 0 1 1 2 2 2 1 1 1 1 1
0 0 0 0 0 0 0 0 0 0 0 0 0 0 0 1 2 5 8 10 10 12 12 12 13 10 6 4 4 4 3 1 0 0 0 0 1 3 3 3 2 2 2 2
0 0 0 0 0 0 0 0 0 0 0 0 0 0 0 1 3 5 7 9 11 12 10 8 8 6 4 2 2 2 1 0 0 0 0 0 1 2 2 3 3 3 3 3
0 0 0 0 0 0 0 0 0 0 0 0 0 0 0 1 3 5 6 7 9 9 8 6 6 5 4 3 3 2 1 0 0 1 1 0 0 1 1 1 2 3 3 3
0 0 0 0 0 0 0 0 0 0 0 0 0 0 1 3 5 5 4 4 5 6 6 5 5 6 6 5 4 3 1 0 0 1 1 0 0 0 0 0 1 2 2 2
0 0 0 0 0 0 0 0 0 0 0 0 0 0 2 5 6 5 4 3 4 6 6 6 7 7 8 7 7 5 3 1 1 1 1 0 0 0 0 0 0 1 1 1
0 0 0 0 0 0 0 0 0 0 0 0 0 1 3 5 6 5 4 4 7 9 10 10 10 11 10 10 9 9 6 3 2 2 1 0 0 0 0 0 0 0 0 0
0 0 0 0 0 1 2 1 1 0 0 1 2 3 4 6 7 6 6 7 11 13 14 14 15 15 15 13 12 12 10 6 4 3 2 1 0 0 0 0 0 0 0 0
0 0 0 0 0 1 2 2 1 1 1 3 4 4 4 5 6 7 9 12 15 16 17 18 19 20 19 17 16 16 13 8 5 4 3 2 1 0 0 0 0 1 1 0
0 0 0 0 0 1 1 1 2 3 3 4 5 4 4 4 5 6 10 15 19 19 19 19 20 21 21 20 19 17 13 9 7 5 5 3 1 1 1 1 1 2 3 2
0 0 0 0 0 0 0 1 2 4 5 5 5 5 4 4 4 6 10 16 20 20 18 18 20 21 21 20 18 15 12 9 7 6 5 3 2 2 2 2 3 3 4 4
0 0 0 0 0 0 0 1 2 2 3 5 6 7 8 7 7 10 13 17 21 20 18 19 20 20 20 20 16 12 10 9 7 5 5 4 3 3 3 3 3 3 4 4
0 0 0 0 0 0 0 1 1 1 2 5 7 9 11 11 11 15 19 21 23 22 20 20 20 20 20 18 16 13 10 8 7 6 6 5 4 3 2 2 2 2 3 3
0 0 0 0 0 0 1 2 2 1 3 6 8 9 12 13 13 16 22 24 25 25 24 20 18 18 19 16 13 12 10 9 8 8 7 7 5 3 1 1 2 2 2 3
0 0 0 0 0 0 1 2 1 1 4 7 7 6 10 13 13 15 19 22 23 26 26 21 17 15 14 12 10 10 9 9 9 9 8 8 6 3 2 2 2 2 3 3
1 0 0 1 1 1 2 3 4 4 6 7 6 6 10 13 15 15 16 18 20 23 25 22 17 13 10 8 8 7 7 7 8 9 8 7 6 4 3 3 3 3 3 3
2 1 2 4 4 4 5 7 9 9 9 10 11 12 14 15 15 15 16 16 18 21 24 22 18 13 9 6 5 5 6 6 6 7 7 7 6 4 3 3 3 3 3 3
2 1 3 4 4 5 7 8 10 11 10 12 15 18 18 17 14 13 14 16 17 19 22 22 18 12 7 4 4 4 5 5 5 6 7 6 5 4 3 3 3 2 2 1
1 1 2 2 2 4 6 6 7 9 9 11 15 17 19 18 14 12 13 14 15 17 20 20 17 10 5 4 4 5 5 5 4 5 6 6 5 4 3 3 2 1 1 0

GEFSCGP_con_probscp_180.txt.gz
Probability
0 0 0 0 0 0 0 0 0 0 0 0 1 3 4 3 3 5 5 4 7 10 15 22 26 27 29 30 30 30 26 19 14 9 6 5 6 7 6 5 2 1 0 0
0 0 0 0 0 0 0 0 0 0 0 0 0 1 2 3 4 6 6 5 7 10 16 23 29 31 33 34 33 31 28 22 16 11 7 6 7 8 6 3 1 0 0 0
0 0 0 0 0 0 0 0 0 0 0 0 0 0 1 3 6 8 7 6 7 11 18 24 29 34 37 37 33 29 27 24 19 13 9 7 8 7 4 2 1 1 0 0
0 0 0 0 0 0 0 0 0 0 0 0 0 0 1 4 7 8 8 7 9 13 19 23 26 32 35 32 28 26 25 24 21 15 10 8 7 5 3 2 2 2 1 1
0 0 0 0 0 0 0 0 0 0 0 0 0 0 2 3 5 7 8 8 9 11 17 20 25 30 31 26 23 21 21 21 20 15 10 8 6 4 3 3 4 4 3 2
0 0 0 0 0 0 0 0 0 0 0 0 0 0 2 3 3 6 8 9 8 9 13 18 24 27 27 24 19 16 16 16 16 14 11 10 9 8 8 8 7 6 4 4
0 0 0 0 0 0 0 0 0 0 0 0 0 1 2 2 2 4 7 9 9 9 11 17 22 25 25 22 17 13 13 14 14 15 15 14 13 13 12 11 11 8 5 5
0 0 0 0 0 0 0 0 0 0 0 0 0 1 2 2 3 4 6 9 10 10 11 16 20 22 22 20 16 12 12 12 14 16 17 15 15 14 11 10 10 9 6 4
0 0 0 0 0 0 0 0 0 0 0 0 0 1 2 3 5 6 7 10 10 8 9 14 17 18 18 18 14 11 11 12 14 15 15 14 14 13 10 8 8 8 7 5
0 0 0 0 0 0 0 0 0 0 0 0 0 1 1 3 7 9 11 11 9 6 8 11 14 15 16 15 13 10 11 13 13 13 12 11 12 12 10 7 6 7 7 7
0 0 0 0 0 0 0 0 0 0 0 0 0 0 1 4 8 12 13 11 8 7 9 11 14 16 16 14 12 10 10 11 11 11 11 9 9 9 8 6 4 5 6 6
0 0 0 0 0 0 0 0 0 0 0 0 1 1 2 6 10 13 14 12 10 11 13 15 17 20 20 19 17 13 11 10 10 11 10 10 9 8 6 4 2 2 3 3
0 0 0 0 0 0 0 0 0 0 0 0 1 2 3 7 11 15 16 14 13 17 20 22 25 28 29 29 27 21 16 14 14 13 12 11 10 8 7 4 2 2 2 1
0 0 0 0 0 0 0 0 0 0 0 0 1 2 4 7 11 16 19 18 18 23 27 31 36 39 38 37 35 29 23 21 20 18 16 13 12 10 8 7 6 5 3 3
0 0 0 0 0 0 0 0 0 0 0 0 1 3 5 8 11 17 22 23 24 26 30 36 42 44 43 41 37 31 27 26 25 23 20 17 16 14 11 9 9 8 6 5
0 0 0 0 0 0 1 1 0 0 0 0 1 4 7 10 15 21 25 27 28 28 31 37 43 45 45 43 37 32 27 27 28 27 24 23 22 19 14 11 9 8 7 6
0 0 0 0 0 0 1 2 1 0 0 1 4 7 9 13 18 22 26 28 29 30 34 38 41 43 44 41 37 33 30 28 28 27 25 25 24 21 16 13 10 7 6 5
0 0 0 0 0 0 1 2 2 1 2 5 9 12 14 16 19 22 26 29 30 33 37 39 39 40 41 39 37 35 33 29 26 24 23 22 21 19 18 15 11 8 6 5
0 0 0 0 0 0 1 2 3 4 6 9 14 19 20 17 18 25 30 31 33 36 40 41 41 42 43 41 38 35 34 30 27 25 23 19 17 18 18 16 12 9 8 8
1 1 0 0 0 0 2 3 3 6 11 16 21 27 26 21 23 32 37 37 39 41 44 45 46 48 48 44 39 37 35 32 29 26 23 21 19 19 18 16 12 11 11 10
0 0 0 0 0 2 6 8 9 14 24 30 32 35 36 35 38 41 40 41 44 44 44 45 47 48 48 44 41 39 37 32 27 24 24 24 24 21 18 16 13 11 9 8
4 4 3 2 4 10 20 26 29 36 43 44 43 45 48 49 49 45 41 41 43 43 43 43 46 47 46 44 42 40 36 29 23 21 24 26 25 21 18 16 13 9 7 5
14 14 12 13 18 27 38 47 51 53 53 51 50 51 52 51 49 45 42 40 40 41 41 42 45 46 44 41 38 35 31 26 23 22 23 24 22 20 17 15 12 8 5 4
26 25 26 30 36 42 49 56 58 55 52 51 50 48 46 45 45 44 42 40 39 38 37 36 38 40 38 33 31 28 25 24 25 24 23 22 19 15 13 12 9 6 5 4
36 35 36 40 45 49 53 57 58 54 51 48 44 40 39 40 41 41 40 38 37 35 31 29 30 32 30 27 24 24 23 23 23 23 22 20 16 11 9 8 6 5 4 4
42 40 39 40 46 52 56 59 59 55 50 46 41 36 37 39 40 39 37 37 35 32 28 26 27 28 27 24 22 21 22 21 20 20 20 19 15 10 8 6 4 4 3 2

GEFSCGP_con_probscp_186.txt.gz
Probability
0 0 0 0 0 0 0 0 0 0 0 1 2 3 4 7 14 27 36 43 47 48 48 51 54 56 58 59 57 53 50 48 43 34 24 17 16 16 13 12 11 10 8 6
0 0 0 0 0 0 0 0 0 0 0 1 1 2 4 6 12 23 33 40 45 48 51 56 59 59 61 61 57 53 51 50 46 39 29 20 16 15 13 12 13 13 11 9
0 0 0 0 0 0 0 0 0 0 0 0 0 2 5 8 12 18 26 34 41 47 55 60 61 61 62 63 59 55 53 51 48 43 34 24 18 17 16 15 16 17 16 14
0 0 0 0 0 0 0 0 0 0 0 0 0 3 7 10 11 14 21 30 37 46 55 59 58 59 60 61 60 58 55 50 47 44 37 29 23 20 20 19 19 20 20 19
0 0 0 0 0 0 0 0 0 0 0 0 0 3 6 9 11 13 18 27 36 45 53 56 56 56 56 57 59 59 56 51 47 44 38 31 24 19 19 20 21 21 23 23
0 0 0 0 0 0 0 0 0 0 0 0 0 2 5 8 10 14 19 25 35 46 51 53 55 57 56 54 55 55 53 50 47 41 36 31 25 19 18 19 20 21 22 24
0 0 0 0 0 0 0 0 0 0 0 0 0 2 5 7 11 16 21 24 32 41 47 49 54 59 58 53 51 50 49 48 45 39 34 32 29 24 20 18 18 20 20 19
0 0 0 0 0 0 0 0 0 0 0 0 1 4 8 9 11 17 21 25 28 34 40 43 49 54 54 50 49 49 50 49 44 38 34 33 31 27 20 17 18 20 19 16
0 0 0 0 0 0 0 0 0 0 0 0 2 8 13 12 12 18 22 24 25 27 32 36 40 45 46 46 48 51 52 51 45 38 34 32 30 25 18 16 18 20 18 16
0 0 0 0 0 0 0 0 0 0 0 0 2 9 15 15 15 20 24 25 26 26 27 30 33 36 40 43 48 52 54 51 44 38 33 30 27 24 19 16 17 18 17 17
0 0 0 0 0 0 0 0 0 0 0 0 2 7 12 14 17 22 26 29 30 28 27 29 31 35 40 44 48 52 53 49 43 39 35 31 28 26 23 20 18 18 19 19
0 0 0 0 0 0 0 0 0 0 1 0 1 5 9 12 18 25 30 35 37 34 33 35 38 42 45 46 49 53 52 48 43 41 40 36 32 30 28 24 20 19 19 19
0 0 0 0 0 0 0 0 0 0 0 0 2 5 9 14 20 29 37 43 45 44 44 46 48 50 51 52 54 55 53 48 43 42 41 39 35 32 30 27 22 19 18 18
0 0 0 0 0 0 0 0 0 0 0 1 3 8 14 20 26 36 45 49 50 52 53 54 56 56 58 60 59 56 52 48 45 44 41 39 37 33 31 30 28 23 20 19
0 0 0 0 0 0 0 0 0 0 0 1 4 11 19 26 33 42 48 50 51 54 56 56 56 57 60 62 61 56 50 47 47 45 42 40 39 36 35 36 35 31 26 23
1 1 0 0 0 0 0 0 0 0 0 1 5 13 22 31 38 46 50 51 52 55 57 56 54 55 57 58 57 54 49 47 47 46 42 42 42 40 40 40 37 33 29 27
3 4 2 0 0 0 0 0 0 0 0 2 8 16 26 36 45 51 52 53 54 57 60 58 55 55 54 53 52 50 48 46 47 46 44 43 43 42 42 41 36 32 29 27
7 9 5 1 0 0 0 0 0 1 2 6 13 22 32 42 52 57 57 57 58 60 62 62 58 56 53 51 50 49 47 46 46 46 45 44 44 43 42 42 40 36 31 28
9 11 7 2 0 0 0 0 1 3 7 13 20 28 36 43 50 56 59 61 62 62 62 62 59 56 55 53 52 52 49 47 44 44 45 44 43 42 42 43 43 40 35 31
8 10 7 3 1 0 1 2 3 8 17 25 29 33 39 46 52 59 63 64 64 63 61 60 58 57 59 58 56 55 51 45 42 41 43 44 43 42 41 42 42 39 35 31
5 8 6 3 2 2 4 6 12 24 37 43 44 46 51 58 63 68 69 68 67 65 61 59 58 59 61 61 60 58 52 45 42 42 41 41 41 39 38 38 38 36 32 29
6 7 9 10 14 19 23 24 34 52 61 61 61 63 67 70 71 71 71 69 67 65 62 59 58 60 62 62 61 59 53 47 45 43 40 36 35 34 34 35 35 33 30 27
10 13 19 27 37 47 51 51 58 68 71 69 69 71 73 73 70 67 67 66 63 62 60 58 56 57 58 58 59 58 53 48 46 43 38 34 30 29 30 31 30 28 26 24
18 22 34 46 56 63 65 64 67 70 69 66 66 68 69 69 66 64 64 62 58 56 54 54 53 52 52 54 54 52 48 46 45 41 37 33 30 27 26 26 23 21 20 18
26 31 43 56 64 66 65 64 65 68 67 63 62 63 64 64 62 61 61 59 54 50 49 50 50 50 50 50 48 45 42 41 40 37 34 32 30 27 23 20 17 14 12 11
31 36 44 58 67 67 66 64 64 66 66 65 63 61 61 61 61 59 59 57 51 47 47 49 48 47 48 48 46 42 39 37 35 33 33 31 30 28 23 17 13 10 7 6

GEFSCGP_con_probscp_192.txt.gz
Probability
0 0 0 0 0 0 0 0 0 0 0 2 6 9 12 20 30 34 34 33 36 40 43 45 45 41 36 32 27 23 18 13 10 9 7 6 4 1 1 1 1 2 2 2
0 0 0 0 0 0 0 0 0 0 1 3 5 7 9 15 24 28 29 30 34 37 40 44 46 44 40 34 30 27 22 18 15 11 7 5 4 2 1 1 1 1 2 2
0 0 0 0 0 0 0 0 0 1 2 3 4 5 6 9 13 19 23 27 31 34 37 42 45 45 42 39 36 31 26 22 19 13 7 5 5 4 3 2 1 1 2 2
0 0 0 0 0 0 0 0 0 1 2 3 3 5 5 5 8 14 21 26 29 32 36 39 41 42 41 42 41 35 29 24 20 15 8 6 6 6 5 4 2 1 1 2
0 0 0 0 0 0 0 0 0 0 1 2 2 3 3 4 8 14 21 26 29 31 34 35 36 35 35 38 40 38 33 28 25 18 9 6 6 6 4 3 2 1 1 1
0 0 0 0 0 0 0 0 0 0 0 1 1 1 1 4 9 15 21 26 29 31 32 32 30 30 30 33 36 37 34 30 28 21 12 6 5 4 3 2 2 1 1 2
0 0 0 0 0 0 0 0 0 0 0 0 0 1 1 4 9 16 21 25 30 32 31 28 26 27 30 32 34 34 31 28 26 22 16 9 5 4 3 2 1 1 1 1
0 0 0 0 0 0 0 0 0 0 0 0 1 2 3 5 10 15 19 25 30 30 26 23 21 24 29 34 35 34 30 26 23 23 21 15 9 6 4 2 1 0 0 0
0 0 0 0 0 0 0 0 0 0 0 0 1 3 5 7 11 14 18 24 27 24 21 19 19 22 28 33 36 35 31 26 23 22 22 18 14 9 5 2 1 0 0 1
0 0 0 0 0 0 0 0 0 0 0 0 1 2 5 8 12 16 18 20 20 19 17 17 19 20 24 30 34 35 32 28 24 21 19 18 16 12 8 4 1 1 1 2
0 0 0 0 0 0 0 0 0 0 0 0 0 1 4 8 14 18 18 17 16 16 17 18 21 22 24 28 33 34 33 30 26 21 17 16 15 13 9 6 3 3 3 3
0 0 0 0 0 0 0 0 0 0 0 0 0 2 7 12 15 17 20 19 17 18 19 21 24 27 28 29 32 34 34 31 26 21 16 14 14 12 9 7 6 5 4 4
0 0 0 0 0 0 0 0 0 0 0 0 2 6 15 19 18 18 21 22 21 22 24 25 27 30 30 28 30 32 32 30 26 21 16 14 14 13 10 9 8 7 5 4
0 0 0 0 0 0 0 0 0 0 0 1 4 11 20 25 22 22 25 26 27 27 29 31 31 30 28 27 29 31 31 28 26 24 19 16 15 13 12 11 9 7 6 4
0 0 0 0 0 0 0 0 0 0 1 2 6 12 21 25 25 27 31 32 32 32 34 36 35 33 31 30 30 32 31 28 27 24 21 19 17 14 13 11 10 9 7 6
0 0 0 0 0 0 0 0 0 1 2 4 8 13 19 24 25 28 33 36 37 37 38 38 38 37 36 35 33 32 30 28 27 25 20 18 17 14 11 10 9 9 8 7
0 0 0 0 0 0 0 0 2 3 4 7 12 17 22 27 30 32 36 39 41 41 41 40 38 38 39 37 34 31 28 27 27 25 20 17 15 13 10 8 7 7 6 6
0 0 0 0 0 0 0 1 4 7 9 12 18 25 31 36 39 40 42 43 43 43 43 41 39 38 39 38 35 31 28 27 26 24 20 17 15 13 11 9 8 7 6 6
0 0 0 0 0 0 0 3 8 12 14 18 26 34 41 47 48 45 44 45 45 45 43 41 40 39 37 36 35 33 30 28 27 25 21 18 16 15 13 11 10 9 9 8
0 0 0 0 0 0 2 7 12 16 18 21 29 40 46 46 43 40 43 47 48 46 44 43 43 41 37 35 35 34 32 31 29 27 24 18 16 15 13 12 11 11 11 10
0 0 0 0 0 2 6 11 15 18 21 24 31 41 44 39 36 38 44 48 50 50 49 47 45 43 38 34 34 35 34 32 30 27 24 19 15 14 13 12 11 10 9 9
0 0 0 0 1 4 9 14 17 21 26 31 34 39 41 40 41 45 48 48 49 51 51 49 46 43 39 36 35 34 31 29 27 24 20 18 17 16 15 13 11 8 7 7
2 3 5 7 9 12 18 23 26 30 34 36 36 38 43 46 50 52 51 48 47 47 48 47 44 42 38 35 33 31 28 26 24 20 17 16 17 17 16 14 11 7 5 6
9 11 16 20 22 25 30 34 36 38 42 41 40 42 46 49 50 50 48 45 42 41 40 39 39 37 34 31 29 27 25 24 20 17 15 14 15 15 13 11 9 7 6 6
16 20 25 28 31 34 38 39 39 42 46 46 46 46 47 46 45 44 42 39 36 33 31 31 31 30 26 24 23 21 20 18 16 14 14 13 12 10 8 7 6 6 6 5
17 23 29 31 33 36 38 39 41 45 47 48 49 48 45 43 42 40 38 36 32 29 26 25 25 24 22 20 19 17 16 15 13 13 13 12 11 8 5 4 4 3 3 3

GEFSCGP_con_probscp_198.txt.gz
Probability
0 0 0 0 0 0 0 0 0 0 0 0 2 5 7 8 7 7 6 5 7 9 8 7 7 6 7 9 7 5 4 3 4 5 4 3 2 2 2 2 1 0 0 0
0 0 0 0 0 0 0 0 0 0 1 1 2 4 7 7 6 5 5 5 7 8 8 8 8 8 8 8 6 5 4 3 4 5 4 3 1 1 1 2 2 0 0 0
0 0 0 0 0 0 0 0 0 1 2 2 2 3 4 4 4 4 4 5 6 7 8 7 7 8 8 7 6 5 5 4 4 5 4 3 1 0 1 1 1 0 0 0
0 0 0 0 0 0 0 0 0 1 2 2 1 1 1 3 4 4 4 5 5 6 7 5 5 6 8 9 8 7 7 6 6 5 4 3 2 1 0 0 0 0 0 0
0 0 0 0 0 0 0 0 0 1 2 2 2 1 1 3 4 4 5 5 5 5 5 4 4 6 8 9 10 9 8 8 9 7 5 3 2 1 0 0 0 0 0 0
0 0 0 0 0 0 0 0 0 1 1 2 1 1 1 2 4 5 5 5 5 4 4 4 7 9 11 12 12 11 11 12 11 9 5 3 1 0 0 0 0 0 0 0
0 0 0 0 0 0 0 0 0 0 0 0 0 0 1 1 3 5 6 6 5 4 4 6 9 11 13 15 15 14 14 14 12 9 6 3 1 0 1 1 0 0 0 0
0 0 0 0 0 0 0 0 0 0 0 0 0 1 2 3 4 6 7 7 6 5 4 7 9 11 13 15 17 18 16 14 11 8 6 4 3 2 3 2 1 0 0 0
0 0 0 0 0 0 0 0 0 0 0 0 1 3 5 5 6 7 7 6 6 5 5 7 8 8 9 12 15 18 16 12 9 7 6 6 6 5 5 4 2 1 0 0
0 0 0 0 0 0 0 0 0 0 0 0 2 3 5 6 7 7 6 6 6 7 7 8 7 6 7 10 13 16 14 11 8 7 7 8 7 6 5 4 2 1 0 0
0 0 0 0 0 0 0 0 0 0 0 0 1 1 3 6 8 8 7 6 7 8 9 8 7 6 8 10 12 13 12 10 9 8 9 9 8 6 5 3 1 0 0 0
0 0 0 0 0 0 0 0 0 0 0 0 0 0 2 6 9 9 9 10 10 10 10 10 8 8 10 11 12 11 10 10 8 8 8 9 8 7 5 3 1 1 1 1
0 0 0 0 0 0 0 0 0 0 0 0 0 1 4 8 10 10 11 13 13 13 12 11 11 11 12 12 12 11 10 9 9 8 8 8 7 6 5 3 3 2 2 2
0 0 0 0 0 0 0 0 0 0 0 0 0 1 5 9 11 12 13 14 16 16 15 14 14 14 13 12 13 12 10 10 11 10 8 7 6 4 2 2 3 3 3 2
0 0 0 0 0 0 0 0 0 0 0 0 0 1 5 9 12 14 14 16 19 20 19 17 17 16 14 14 14 13 11 10 11 12 10 7 5 2 1 1 2 2 2 1
0 0 0 0 0 0 0 0 0 0 0 0 1 3 7 10 12 14 15 16 19 22 20 18 17 17 17 16 17 16 13 10 11 12 11 7 4 3 2 2 2 2 2 1
0 0 0 0 0 0 0 0 0 1 1 2 3 6 11 13 13 13 15 15 17 18 15 14 15 15 16 17 19 18 14 11 11 13 12 8 5 4 4 3 3 4 3 2
0 0 0 0 0 0 0 0 2 3 4 5 7 12 17 18 15 13 13 14 15 13 11 12 15 16 15 16 18 18 15 12 12 13 13 10 6 4 3 3 3 4 3 2
0 0 0 0 0 0 0 1 3 5 5 6 11 20 24 23 18 13 12 14 13 12 12 14 18 20 19 18 20 19 16 14 12 13 13 12 9 6 3 1 1 1 1 1
0 0 0 0 0 0 0 2 4 4 3 5 14 26 29 24 19 15 15 16 16 15 16 18 21 23 23 23 23 22 19 16 14 13 13 12 10 7 4 2 1 1 1 1
0 0 0 0 0 0 1 4 5 2 2 6 15 25 27 21 16 18 21 22 22 21 22 23 24 25 24 25 26 24 20 17 16 16 14 10 7 5 4 4 4 4 3 3
0 0 0 0 0 0 2 5 4 2 3 9 15 19 20 18 17 20 25 26 25 25 26 27 28 26 24 23 25 25 20 16 16 15 11 7 4 4 5 6 6 6 5 4
1 0 0 1 2 4 4 3 3 3 6 11 14 15 16 19 20 22 26 27 25 24 26 28 27 25 22 22 23 23 19 14 13 12 9 6 5 6 7 8 9 8 6 4
2 1 2 4 9 12 10 6 5 7 10 14 15 15 17 20 21 23 26 26 23 21 22 25 23 21 19 20 20 19 16 12 10 10 8 7 6 8 9 9 10 9 7 4
2 3 6 9 12 16 15 11 8 10 14 18 20 20 22 22 23 24 25 25 23 20 20 22 20 18 17 18 17 16 14 11 9 8 8 8 9 9 8 7 7 6 4 3
2 4 9 11 12 15 16 12 10 11 16 21 24 26 25 25 25 24 24 24 24 21 20 20 20 18 17 16 16 15 13 11 9 7 7 10 11 10 8 6 3 2 1 1

GEFSCGP_con_probscp_204.txt.gz
Probability
0 0 0 0 0 0 0 0 0 0 0 0 0 2 6 7 4 2 2 2 3 6 9 9 9 9 12 16 17 16 15 15 13 9 5 2 1 1 0 0 0 1 3 4
0 0 0 0 0 0 0 0 0 0 0 0 0 1 5 7 5 3 3 2 2 4 8 10 10 11 14 17 18 18 19 18 15 10 6 2 1 0 0 0 0 1 3 3
0 0 0 0 0 0 0 0 0 0 0 0 0 1 4 7 7 6 5 4 2 3 6 9 10 10 12 15 17 19 22 22 18 13 8 4 2 0 0 1 0 0 1 1
0 0 0 0 0 0 0 0 0 0 0 0 0 0 3 6 8 8 8 6 4 4 4 6 7 7 9 11 14 18 22 24 21 16 12 9 6 3 2 1 1 1 0 0
0 0 0 0 0 0 0 0 0 0 0 0 0 0 2 5 7 9 9 7 5 3 2 2 3 4 6 8 11 17 23 25 23 18 16 15 12 8 5 4 3 2 1 1
0 0 0 0 0 0 0 0 0 0 0 0 0 0 2 3 5 8 9 7 5 2 1 1 2 5 6 6 9 16 23 25 24 21 19 18 16 13 10 8 5 3 2 2
0 0 1 0 0 0 0 0 0 0 0 0 0 0 1 2 4 7 9 8 5 3 1 2 5 8 9 8 10 14 20 23 24 22 20 18 17 15 14 12 8 4 2 2
0 0 0 0 0 0 0 0 0 0 0 0 0 0 1 4 5 7 9 10 8 5 4 4 8 12 13 12 12 14 16 19 20 19 18 17 17 15 15 16 14 8 4 3
0 0 0 0 0 0 0 0 0 0 0 0 0 0 1 4 6 7 9 11 10 7 6 7 10 14 15 14 13 13 14 16 18 17 17 17 16 16 15 18 18 13 8 6
0 0 0 0 0 0 0 0 0 0 0 0 0 0 1 3 5 7 10 12 11 8 8 10 12 15 16 15 12 12 13 17 20 19 18 18 18 17 17 19 20 16 11 10
0 0 0 0 0 0 0 0 0 0 0 0 0 0 1 3 5 8 11 14 13 11 12 16 18 19 19 16 13 14 16 19 21 21 20 19 18 18 20 20 18 15 13 13
0 0 0 0 0 0 0 0 0 0 0 0 0 1 4 6 7 10 12 16 18 17 18 23 25 25 23 20 18 17 19 20 20 21 20 19 18 19 21 21 16 12 12 13
0 0 0 0 0 0 0 0 0 0 0 0 0 2 5 8 10 11 14 19 23 24 25 28 30 28 26 25 23 20 20 19 20 22 22 20 21 22 22 20 15 12 11 12
0 0 0 0 0 0 0 0 0 0 0 0 0 2 5 8 12 16 19 23 28 31 33 35 34 32 29 28 27 24 21 20 20 23 24 24 24 25 23 18 15 14 13 13
0 0 0 0 0 0 0 0 0 0 0 0 0 2 5 8 14 22 26 29 34 40 44 44 42 37 33 31 30 29 25 22 21 24 25 25 24 23 21 17 16 16 15 14
0 0 0 0 0 0 0 0 1 1 2 3 3 5 6 10 18 27 34 38 42 48 52 52 48 42 36 32 32 32 29 26 24 25 26 25 23 21 20 19 19 18 17 16
0 0 0 0 0 0 0 0 1 3 4 5 6 7 7 11 21 30 36 42 45 48 53 53 49 43 36 32 33 34 32 31 29 29 29 27 24 23 23 23 22 20 19 19
0 0 0 0 0 0 0 0 1 2 4 5 6 7 8 15 25 32 36 41 43 43 46 47 44 39 33 31 33 35 35 34 34 33 31 28 27 27 27 26 25 23 23 23
0 0 0 0 0 0 0 0 0 0 1 4 6 8 12 19 26 31 35 39 41 40 40 41 41 37 33 31 34 36 36 35 35 35 32 28 26 26 26 28 28 27 25 24
0 0 0 0 0 0 0 0 0 0 1 4 7 11 16 21 25 31 35 38 41 40 38 40 41 38 37 37 39 39 37 36 36 34 31 28 27 25 25 27 29 28 25 23
0 0 0 0 0 1 2 3 3 4 5 7 9 12 18 21 26 33 37 40 43 41 40 41 41 41 43 44 45 46 42 38 36 34 31 29 30 29 26 26 27 25 22 22
0 0 0 0 1 4 8 8 9 10 12 13 13 15 19 25 30 35 39 42 44 43 42 42 42 44 46 47 48 48 44 39 36 34 33 33 34 32 28 26 26 23 21 20
1 2 3 3 7 12 13 13 13 15 18 19 21 23 25 30 34 36 38 41 43 44 43 42 42 43 44 43 43 42 38 35 34 34 35 35 33 30 27 26 24 21 19 18
5 7 9 11 17 20 18 16 18 20 22 25 28 30 32 35 37 37 36 38 41 42 42 41 40 39 37 36 35 35 33 32 32 33 34 32 27 24 23 22 18 16 15 14
10 12 15 19 24 26 25 24 25 26 28 32 35 35 35 35 36 36 35 35 36 38 40 39 36 33 30 29 29 30 31 31 31 31 31 27 20 17 17 15 12 11 10 10
13 15 16 21 27 30 32 31 31 30 32 37 40 39 36 33 32 34 34 34 34 36 39 37 33 30 27 26 27 29 31 31 30 29 29 24 17 14 13 12 10 10 9 8

GEFSCGP_con_probscp_210.txt.gz
Probability
0 0 0 0 0 0 0 0 0 0 0 0 0 1 2 2 2 6 13 24 32 34 32 29 27 29 35 38 35 32 29 25 24 24 22 22 21 17 16 16 13 11 11 12
0 0 0 0 0 0 0 0 0 0 0 0 0 1 1 1 3 6 12 21 30 34 36 34 30 30 36 38 36 33 31 27 26 26 24 22 22 20 19 18 15 11 10 10
0 0 0 0 0 0 0 0 0 0 0 0 1 2 2 2 3 6 10 16 24 31 38 38 33 32 36 37 37 36 35 30 27 26 24 23 23 23 22 21 19 14 10 10
0 0 0 0 0 0 0 0 0 0 0 0 2 2 2 3 5 7 10 14 19 26 34 37 34 33 36 37 38 40 40 34 28 25 24 23 23 24 23 21 20 17 13 12
0 0 0 0 0 0 0 0 0 0 0 0 1 1 1 3 6 7 9 12 16 22 31 36 34 32 33 35 38 43 45 40 32 27 26 24 23 23 22 21 21 20 17 14
0 0 0 0 0 0 0 0 0 0 0 0 0 0 1 3 6 8 9 12 17 22 30 36 35 32 31 31 35 43 47 45 39 33 30 28 25 23 21 21 22 22 20 17
0 0 0 0 0 0 0 0 0 0 0 0 0 1 2 3 4 7 10 13 18 24 30 35 36 35 31 30 34 43 49 48 43 37 34 32 28 25 23 22 22 22 20 18
0 0 0 0 0 0 0 0 0 0 0 0 0 2 4 3 4 8 12 14 16 22 29 33 36 36 33 30 35 44 50 49 44 39 36 32 29 28 26 24 22 21 18 14
0 0 0 0 0 0 0 0 0 0 0 0 1 4 6 6 7 10 14 16 16 21 28 33 37 37 34 32 36 42 46 47 44 42 37 32 30 30 28 26 24 22 19 15
0 0 0 0 0 0 0 0 0 0 0 0 1 5 8 10 12 15 18 19 21 23 27 32 38 39 36 35 37 39 43 46 44 42 38 33 31 32 32 30 29 27 24 21
0 0 0 0 0 0 0 0 0 0 0 0 1 3 6 11 16 19 22 23 24 26 27 31 37 40 38 38 38 38 42 46 45 41 40 37 34 33 33 33 31 29 26 24
0 0 0 0 0 0 0 0 0 0 0 0 1 2 6 11 17 23 25 25 26 29 31 35 40 42 42 40 39 39 40 43 44 44 44 42 38 34 33 32 31 30 26 24
0 0 0 0 0 0 0 0 0 0 0 0 2 6 9 13 19 26 28 29 31 35 38 43 48 49 47 44 41 40 39 40 44 47 48 45 41 37 35 32 31 30 26 23
0 0 0 0 0 0 0 0 0 0 0 1 4 10 15 18 24 29 31 33 36 41 47 51 56 58 56 50 47 45 43 44 46 46 47 45 42 39 37 33 29 26 24 22
0 0 0 0 0 0 0 0 0 0 1 3 7 13 18 21 25 29 31 34 39 46 52 56 61 64 61 55 52 50 48 50 49 45 44 45 43 40 37 34 29 27 25 24
0 0 0 0 0 0 0 0 1 1 2 5 10 16 20 21 25 30 32 34 40 46 53 60 66 68 64 59 55 53 52 54 51 46 44 45 44 41 37 35 33 32 32 31
3 3 2 0 0 0 0 1 3 4 5 7 13 18 21 23 28 34 36 36 39 45 53 63 69 68 65 61 57 54 52 53 52 49 47 46 44 41 38 36 36 37 37 37
7 8 4 0 0 0 0 1 3 5 7 11 16 17 17 23 32 38 40 40 41 46 54 61 63 62 61 59 56 52 50 50 52 52 49 45 43 41 38 37 38 40 40 40
8 11 6 0 0 0 1 2 2 5 10 15 17 16 14 19 29 38 43 45 48 51 56 58 56 56 59 59 56 52 49 49 52 52 47 43 41 39 38 40 40 40 40 39
6 8 5 0 0 0 1 3 3 7 16 21 20 18 19 23 32 40 44 48 53 56 57 55 54 57 61 61 57 53 49 48 50 49 45 42 41 39 40 42 43 40 37 35
2 3 2 0 0 1 4 6 8 16 25 27 23 24 28 34 42 45 45 48 54 56 55 54 54 57 59 59 57 54 49 45 44 46 47 45 42 39 40 42 43 39 33 29
1 1 2 2 5 10 13 14 17 25 30 28 26 28 33 40 46 47 45 47 52 54 54 54 53 54 55 56 56 53 48 42 41 45 48 46 41 37 36 38 38 34 28 24
2 3 6 9 14 22 23 21 23 28 27 24 26 29 32 39 45 47 47 47 50 51 52 53 52 53 54 55 55 51 46 42 41 43 45 43 39 36 34 34 32 27 23 20
5 8 12 16 20 23 22 21 24 26 26 25 26 28 31 38 45 49 51 50 50 50 51 50 52 53 55 55 52 47 43 42 42 42 42 41 39 36 33 30 26 22 19 18
7 11 16 19 21 20 19 20 22 25 29 30 30 31 35 41 46 49 52 51 49 50 50 51 51 53 54 52 47 43 41 41 40 39 38 38 37 35 30 24 20 16 15 15
7 13 19 21 22 21 21 21 21 25 30 32 34 35 40 45 47 48 49 50 49 49 51 52 51 51 52 50 45 41 41 41 40 37 36 35 35 33 27 20 15 11 11 12